Location: Siratepeler Tepesi
(39.1042°N, 32.0781°E)
Time: 05:09:44
(UTC+00:00)

NOSS 2-2 (D) - Pass Details

Date: 11 April 2026
Orbit: 382 x 1694 km, 63.3° (Epoch: 9 May)

Event Time Altitude Azimuth Distance (km) Brightness Sun altitude
Rises 16:45:02 0° 328° (NNW) 2,600 7.6 -4.6°
Reaches altitude 10° 16:46:55 10° 331° (NNW) 1,830 6.7 -5.0°
Maximum altitude 16:50:59 74° 57° (ENE) 708 3.8 -5.7°
Drops below altitude 10° 16:56:41 10° 142° (SE) 2,543 6.2 -6.8°
Enters shadow 16:59:26 - 144° (SE) 3,619 7.0 -7.3°
